Buger, Spain

7:54 AM CEST on July 21, 2017 (GMT +0200)
Buger

Weather History for 08306 - November, 2013

Change the Weather History Date:

Tuesday, November 5, 2013

  Actual Average Record
Temperature  
Mean Temperature 72 °F -  
Max Temperature 78 °F 63 °F - ()
Min Temperature 66 °F 45 °F - ()
Cooling Degree Days 7    
Growing Degree Days 22 (Base 50)    
Moisture  
Dew Point 55 °F    
Average Humidity 55    
Maximum Humidity 73    
Minimum Humidity 36    
Precipitation  
Precipitation 0.00 in 0.06 in - ()
Sea Level Pressure  
Sea Level Pressure 29.80 in    
Wind  
Wind Speed 14 mph ()    
Max Wind Speed 29 mph    
Max Gust Speed 46 mph    
Visibility 7.1 miles    
Events Rain    
T = Trace of Precipitation, MM = Missing Value Source: Averaged Metar Reports

Daily Weather History Graph

Daily Weather History Graph

Search for Another Location

Airport or City:

Trip Planner

Search our weather history database for the weather conditions in past years. The results will help you decide how hot, cold, wet, or windy it might be!

Date:

Astronomy

Nov. 05, 2013 Rise Set
Actual Time 7:21 AM CET 5:42 PM CET
Civil Twilight 6:53 AM CET 6:11 PM CET
Nautical Twilight 6:21 AM CET 6:43 PM CET
Astronomical Twilight 5:50 AM CET 7:14 PM CET
Moon 9:20 AM CET (11/5) 7:29 PM CET (11/5)
Length of Visible Light 11h 17m
Length of Day
10h 21m
Waxing Crescent, 5% of the Moon is Illuminated
Nov 5
Waxing Crescent
Nov 10
First Quarter
Nov 17
Full
Nov 25
Last Quarter
Dec 3
New

Hourly Weather History & Observations

Time (CET) Temp. Dew Point Humidity Pressure Visibility Wind Dir Wind Speed Gust Speed Precip Events Conditions
12:00 AM 68.0 °F 50.0 °F 52% 29.74 in 6.2 mi NW 21.9 mph 38.0 mph N/A   Partly Cloudy
12:30 AM 68.0 °F 50.0 °F 52% 29.74 in 6.2 mi NW 23.0 mph 35.7 mph N/A   Partly Cloudy
1:00 AM 68 °F 49 °F 39% 29.77 in 16 mi WNW 20.7 mph - -   Scattered Clouds
1:00 AM 68.0 °F 50.0 °F 52% 29.77 in 6.2 mi WNW 21.9 mph 35.7 mph N/A   Partly Cloudy
1:30 AM 68.0 °F 50.0 °F 52% 29.77 in 6.2 mi WNW 21.9 mph 33.4 mph N/A   Partly Cloudy
2:00 AM 68.0 °F 51.8 °F 56% 29.77 in 6.2 mi WNW 17.3 mph 28.8 mph N/A   Partly Cloudy
2:30 AM 68.0 °F 50.0 °F 52% 29.77 in 6.2 mi WNW 18.4 mph - N/A   Partly Cloudy
3:00 AM 68.0 °F 51.8 °F 56% 29.77 in 6.2 mi WNW 20.7 mph 35.7 mph N/A   Partly Cloudy
3:30 AM 68.0 °F 50.0 °F 52% 29.77 in 6.2 mi WNW 11.5 mph - N/A   Partly Cloudy
4:00 AM 68.0 °F 51.8 °F 56% 29.74 in 6.2 mi WNW 17.3 mph 28.8 mph N/A   Partly Cloudy
4:30 AM 66.2 °F 51.8 °F 60% 29.74 in 6.2 mi WNW 21.9 mph 34.5 mph N/A   Partly Cloudy
5:00 AM 68.0 °F 50.0 °F 52% 29.74 in 6.2 mi WNW 19.6 mph 31.1 mph N/A   Partly Cloudy
5:30 AM 68.0 °F 51.8 °F 56% 29.77 in 6.2 mi WNW 17.3 mph 29.9 mph N/A   Partly Cloudy
6:00 AM 68.0 °F 51.8 °F 56% 29.77 in 6.2 mi WNW 10.4 mph - N/A   Partly Cloudy
6:30 AM 66.2 °F 51.8 °F 60% 29.80 in 6.2 mi WNW 8.1 mph - N/A   Partly Cloudy
7:00 AM 66 °F 53 °F 53% 29.80 in 19 mi West 3.5 mph - -   Partly Cloudy
7:00 AM 66.2 °F 53.6 °F 64% 29.80 in 6.2 mi West 3.5 mph - N/A   Scattered Clouds
7:30 AM 68.0 °F 53.6 °F 60% 29.80 in 6.2 mi West 3.5 mph - N/A   Mostly Cloudy
8:00 AM 68.0 °F 57.2 °F 68% 29.80 in 6.2 mi WSW 8.1 mph - N/A   Mostly Cloudy
8:30 AM 68.0 °F 57.2 °F 68% 29.80 in 6.2 mi WSW 6.9 mph - N/A Rain Light Rain
9:00 AM 68.0 °F 59.0 °F 73% 29.83 in 6.2 mi West 6.9 mph - N/A Rain Light Rain
9:30 AM 68.0 °F 59.0 °F 73% 29.83 in 6.2 mi Calm Calm - N/A Rain Light Rain
10:00 AM 68.0 °F 59.0 °F 73% 29.80 in 6.2 mi Calm Calm - N/A Rain Light Rain
10:30 AM 69.8 °F 60.8 °F 73% 29.83 in 6.2 mi SW 3.5 mph - N/A   Mostly Cloudy
11:00 AM 71.6 °F 62.6 °F 73% 29.80 in 6.2 mi WSW 11.5 mph - N/A   Mostly Cloudy
11:30 AM 71.6 °F 62.6 °F 73% 29.80 in 6.2 mi West 16.1 mph - N/A   Mostly Cloudy
12:00 PM 73.4 °F 60.8 °F 65% 29.80 in 6.2 mi West 15.0 mph - N/A   Mostly Cloudy
12:30 PM 73.4 °F 60.8 °F 65% 29.80 in 6.2 mi West 15.0 mph - N/A   Mostly Cloudy
1:00 PM 78 °F 59 °F 41% 29.80 in 19 mi West 15.0 mph - -   Partly Cloudy
1:00 PM 77.0 °F 59.0 °F 54% 29.80 in 6.2 mi West 13.8 mph - N/A   Mostly Cloudy
1:30 PM 77.0 °F 59.0 °F 54% 29.80 in 6.2 mi West 15.0 mph - N/A   Scattered Clouds
2:00 PM 77.0 °F 55.4 °F 47% 29.80 in 6.2 mi WNW 20.7 mph - N/A   Partly Cloudy
2:30 PM 77.0 °F 59.0 °F 54% 29.80 in 6.2 mi WNW 17.3 mph - N/A   Partly Cloudy
3:00 PM 77.0 °F 57.2 °F 50% 29.80 in 6.2 mi WNW 17.3 mph - N/A   Partly Cloudy
3:30 PM 77.0 °F 57.2 °F 50% 29.80 in 6.2 mi West 13.8 mph - N/A   Partly Cloudy
4:00 PM 77.0 °F 55.4 °F 47% 29.80 in 6.2 mi WNW 12.7 mph 24.2 mph N/A   Partly Cloudy
4:30 PM 77.0 °F 55.4 °F 47% 29.80 in 6.2 mi West 12.7 mph 25.3 mph N/A   Partly Cloudy
5:00 PM 77.0 °F 55.4 °F 47% 29.80 in 6.2 mi WNW 11.5 mph - N/A   Partly Cloudy
5:30 PM 75.2 °F 55.4 °F 50% 29.80 in 6.2 mi West 8.1 mph 20.7 mph N/A   Partly Cloudy
6:00 PM 75.2 °F 55.4 °F 50% 29.80 in 6.2 mi WSW 4.6 mph - N/A   Partly Cloudy
6:30 PM 75.2 °F 55.4 °F 50% 29.80 in 6.2 mi West 4.6 mph - N/A   Partly Cloudy
7:00 PM 76 °F 54 °F 36% 29.81 in 16 mi WNW 16.1 mph - -   Scattered Clouds
7:00 PM 77.0 °F 53.6 °F 44% 29.80 in 6.2 mi WNW 13.8 mph 26.5 mph N/A   Partly Cloudy
7:30 PM 77.0 °F 53.6 °F 44% 29.80 in 6.2 mi WNW 12.7 mph - N/A   Partly Cloudy
8:00 PM 77.0 °F 53.6 °F 44% 29.83 in 6.2 mi WNW 20.7 mph - N/A   Partly Cloudy
8:30 PM 77.0 °F 55.4 °F 47% 29.83 in 6.2 mi NW 20.7 mph - N/A   Partly Cloudy
9:00 PM 77.0 °F 53.6 °F 44% 29.83 in 6.2 mi NW 17.3 mph - N/A   Partly Cloudy
9:30 PM 77.0 °F 53.6 °F 44% 29.86 in 6.2 mi WNW 11.5 mph 24.2 mph N/A   Partly Cloudy
10:00 PM 77.0 °F 55.4 °F 47% 29.86 in - West 4.6 mph - N/A   Clear
10:30 PM 75.2 °F 57.2 °F 53% 29.89 in - NW 12.7 mph - N/A   Clear
11:00 PM 73.4 °F 59.0 °F 61% 29.86 in - NW 19.6 mph - N/A   Clear
11:30 PM 75.2 °F 59.0 °F 57% 29.83 in - NNW 28.8 mph 46.0 mph N/A   Clear